Location: Gunnedah
(30.9923°S, 150.2369°E)
Time: 21:56:32
(UTC+10:00)

LightSail 2 - Visible Passes

Search period start: 12 August 2020 00:00
Search period end: 22 August 2020 00:00
Orbit: 699 x 712 km, 24.0° (Epoch: 11 August)

Date Brightness Start Highest point End Pass type
(mag) Time Alt. Az. Time Alt. Az. Time Alt. Az.
12 Aug 6.7 04:08:50 29° NE 04:08:50 29° NE 04:11:51 10° ENE visible
12 Aug 6.3 05:47:39 11° WNW 05:52:06 32° N 05:56:39 10° NE visible
13 Aug 6.0 04:50:58 33° NNW 04:51:49 36° N 04:56:30 10° ENE visible
14 Aug 7.2 03:54:17 21° NE 03:54:17 21° NE 03:56:15 10° ENE visible
14 Aug 6.6 05:33:06 14° WNW 05:36:27 26° NNW 05:40:44 10° NE visible
15 Aug 6.3 04:36:25 31° N 04:36:25 31° N 04:40:42 10° NE visible
16 Aug 7.8 03:39:45 14° NE 03:39:45 14° NE 03:40:32 10° ENE visible
16 Aug 6.8 05:18:33 16° NW 05:20:45 20° NNW 05:24:30 10° NNE visible
17 Aug 6.9 04:21:54 22° N 04:21:54 22° N 04:24:39 10° NE visible
17 Aug 7.5 06:04:32 10° NNW 06:05:13 10° NNW 06:05:55 10° NNW visible
18 Aug 7.1 05:04:04 14° NNW 05:04:58 14° NNW 05:07:42 10° NNE visible
19 Aug 7.6 04:07:26 13° NNE 04:07:26 13° NNE 04:08:15 10° NNE visible
